Regional Weather Roundup
Issued by NWS San Angelo, TX

Home | Current Version | Previous Version | Text Only | Print | Product List | Glossary On
Versions: 1 2 3 4 5 6 7 8 9 10 11 12 13 14 15 16 17 18 19 20 21 22 23 24 25 26 27 28 29 30 31 32 33 34 35 36 37 38 39 40 41 42 43 44 45 46 47 48 49 50
000
ASUS44 KSJT 310410
RWRSJT
WEST CENTRAL TEXAS REGIONAL WEATHER ROUNDUP
NATIONAL WEATHER SERVICE SAN ANGELO TX
1100 PM CDT SAT AUG 30 2014

NOTE: "FAIR" INDICATES FEW OR NO CLOUDS BELOW 12,000 FEET WITH NO
SIGNIFICANT WEATHER AND/OR OBSTRUCTIONS TO VISIBILITY.

TXZ049-054-064>066-071>073-076>078-098-099-113-114-127-128-139-140-
154-155-168>170-310500
...LOCATIONS ACROSS WEST CENTRAL TEXAS...

CITY           SKY/WX    TMP DP  RH WIND       PRES   REMARKS
SAN ANGELO     CLEAR     80  66  62 S5        29.98R
ABILENE        CLEAR     84  66  54 S13       29.98R
DYESS AFB      CLEAR     81  67  61 S9        29.97R
JUNCTION       MOCLDY    79  67  66 CALM      29.98S
SWEETWATER     CLEAR     80  65  59 SE8       30.02S
BROWNWOOD      CLOUDY    81  68  65 SE6       29.97S
COLEMAN        PTCLDY    81  65  59 S9        29.98R
SONORA         MOCLDY    75  68  78 CALM      30.03S
OZONA          FAIR      77  63  61 S5        30.03R
BRADY          CLEAR     75  68  78 S5        29.99S
$$

TEXAS PANHANDLE/OKLAHOMA PANHANDLE

CITY           SKY/WX    TMP DP  RH WIND       PRES   REMARKS
AMARILLO       MOCLDY    78  53  41 SE10      30.01R
BORGER         PTCLDY    82  54  37 S17G30    29.94S
CANADIAN       CLEAR     79  59  50 S13G20    29.92R
DALHART        CLEAR     76  51  41 S18       29.97S
DUMAS          MOCLDY    74  55  50 S10       29.97R
GUYMON         NOT AVBL
HEREFORD       PTCLDY    77  55  47 SE17G28   30.01F
PAMPA          CLEAR     76  54  45 S13       29.99R
PERRYTON       CLEAR     74  60  60 S14       29.94R
$$

SOUTHERN PANHANDLE/SOUTH PLAINS/ROLLING PLAINS

CITY           SKY/WX    TMP DP  RH WIND       PRES   REMARKS
LUBBOCK        CLEAR     78  52  40 SE14      30.01R
SNYDER         CLEAR     82  59  45 SE9       30.00S
CHILDRESS      CLEAR     78  64  61 S9        29.94R
SEMINOLE       CLEAR     79  46  31 SE9       30.03R
$$

PERMIAN BASIN

CITY           SKY/WX    TMP DP  RH WIND       PRES   REMARKS
MIDLAND        CLEAR     83  64  52 SE15      30.00R
ODESSA         CLEAR     84  61  45 SE14      30.01R
WINK           CLEAR     87  60  40 SE15      29.96R
$$

FAR WEST/SOUTHWEST MOUNTAINS/TRANS PECOS

CITY           SKY/WX    TMP DP  RH WIND       PRES   REMARKS
ALPINE         CLEAR     79  54  42 SE7       30.15R
DRYDEN           N/A     87  64  46 E12       29.96R
EL PASO        CLEAR     84  46  26 S5        30.00R
FORT STOCKTON  CLEAR     82  62  50 SE13      30.00R
GUADALUPE PASS CLEAR     75  33  21 E16       30.16R
MARFA          CLEAR     72  50  46 NE7       30.13S
PECOS          CLEAR     84  59  43 E12       29.96R
$$

DALLAS/FORT WORTH METROPLEX

CITY           SKY/WX    TMP DP  RH WIND       PRES   REMARKS
DFW AIRPORT    PTCLDY    84  69  60 S9        29.93S
FTW MEACHAM    CLEAR     84  68  58 S7        29.93R
DAL-EXECUTIVE  CLEAR     83  69  62 S6        29.94R
GRAND PRAIRIE  CLEAR     83  67  57 SE6       29.95R
ADDISON        CLEAR     85  66  53 S8        29.95S
MESQUITE       CLEAR     78  68  69 SE6       29.94S
LANCASTER      CLEAR     76  69  77 CALM      29.95S
$$

NORTH CENTRAL TEXAS

CITY           SKY/WX    TMP DP  RH WIND       PRES   REMARKS
SHRMAN/DENISON CLEAR     73  68  82 CALM      29.95R
GAINESVILLE    CLEAR     78  69  73 SE7       29.95S
BRIDGEPORT     CLEAR     82  66  59 S8        29.95R
DENTON         CLEAR     82  69  64 S8        29.93R
WAXAHACHIE     CLEAR     78  67  67 S3        29.96S
GRANBURY       CLEAR     83  69  62 SE6       29.96S
$$

WESTERN NORTH TEXAS

CITY           SKY/WX    TMP DP  RH WIND       PRES   REMARKS
WICHITA FALLS  CLEAR     79  67  66 SE7       29.92R
VERNON         CLEAR     80  66  61 SE7       29.93R
BRECKENRIDGE   CLEAR     83  66  55 SE8       29.95S
COMANCHE         N/A     79  67  66 SE6       29.97S
$$

CENTRAL AND SOUTH CENTRAL TEXAS

CITY           SKY/WX    TMP DP  RH WIND       PRES   REMARKS
AUSTIN/BERGSTM PTCLDY    82  73  74 S10       29.95R
WACO           CLEAR     80  69  69 E3        29.94S
HILLSBORO      CLEAR     81  67  62 SE7       29.95S
TEMPLE         CLEAR     79  64  61 SE6       29.95R
KILLEEN-GRAY   PTCLDY    82  68  61 SE9       29.96R
FORT HOOD      CLEAR     84  68  58 E6        29.96R
GEORGETOWN     CLEAR     84  72  65 S10       29.97R
LAGO VISTA     FAIR      83  71  67 S8        29.98R
SAN MARCOS     PTCLDY    81  70  69 SE10      29.98R
NEW BRAUNFELS  PTCLDY    82  72  71 S17       29.94S
RANDOLPH AFB   PTCLDY    82  71  68 S12       29.97R
SAN ANTONIO    MOCLDY    83  70  64 S13       29.97R
STINSON        PTCLDY    82  70  66 S10       29.94R
PLEASANTON     NOT AVBL
LA GRANGE      PTCLDY    81  74  81 S7        29.95S
GIDDINGS       PTCLDY    80  70  72 S7        30.00R
$$

EAST TEXAS

CITY           SKY/WX    TMP DP  RH WIND       PRES   REMARKS
PARIS          CLEAR     75  66  73 SE7       29.97R
CLARKSVILLE    NOT AVBL
TYLER          PTCLDY    80  73  79 SE8       29.96R
LONGVIEW       MOCLDY    79  72  79 S9        29.96S
PALESTINE      PTCLDY    79  74  85 SE5       29.97S
NACOGDOCHES    MOCLDY    77  73  88 S8        30.00R
$$

TEXAS HILL COUNTRY AND EDWARDS PLATEAU

CITY           SKY/WX    TMP DP  RH WIND       PRES   REMARKS
LLANO          MOCLDY    79  75  89 CALM      29.98S
HORSESHOE BAY  FAIR      84  67  57 SE7       29.96S
KERRVILLE      CLOUDY    79  71  76 S8        29.99R
FREDERICKSBRG  CLOUDY    82  66  58 S5        29.99S
ROCKSPRINGS    MOCLDY    79  66  65 CALM      30.03S
HONDO          CLEAR     83  66  56 SE10      29.97R
UVALDE         CLEAR     88  71  56 SE16G23   29.93S
DEL RIO        PTCLDY    91  65  41 SE13      29.90R
$$

SOUTHEAST TEXAS

CITY           SKY/WX    TMP DP  RH WIND       PRES   REMARKS
COLLEGE STN    PTCLDY    81  72  74 S9        29.96R
CALDWELL       CLEAR     79  72  78 S10       29.99R
CROCKETT       NOT AVBL
BRENHAM        PTCLDY    80  73  79 S6        29.97S
HUNTSVILLE     MOCLDY    80  74  81 S5        29.97R
CONROE         CLOUDY    78  73  84 SE7       29.98R
HOUSTON BUSH   MOCLDY    79  73  83 S3        29.98R
HOUSTON HOBBY  MOCLDY    78  74  87 S3        29.97R
PERLAND        MOCLDY    78  74  87 CALM      29.99R
WHARTON        MOCLDY    75  73  91 CALM      29.98R
$$

THE UPPER TEXAS COAST

CITY           SKY/WX    TMP DP  RH WIND       PRES   REMARKS
ORANGE         CLOUDY    77  77 100 SE6       30.00S
PORT ARTHUR    CLOUDY    78  75  90 CALM      29.98R
GALVESTON      MOCLDY    81  76  84 S13       29.98R
ANGLETON       MOCLDY    75  73  93 CALM      29.96R
BAY CITY       MOCLDY    78  78 100 CALM      29.96R
$$

TEXAS COASTAL BEND, RIO GRANDE PLAINS DEEP SOUTH TEXAS

CITY           SKY/WX    TMP DP  RH WIND       PRES   REMARKS
VICTORIA       CLOUDY    80  74  81 SE7       29.97R
BEEVILLE       FAIR      79  74  86 SE6       29.95S
ROCKPORT       MOCLDY    82  76  81 SE9       29.94R
PORT ARANSAS   MOCLDY    82  75  81 S10       29.93S
PORT LAVACA    CLOUDY    77  74  90 SE3       29.95R
CORPUS CHRISTI CLOUDY    79  76  90 SE7       29.94R
KINGSVILLE NAS MOCLDY    78  78 100 CALM      29.93S
COTULLA        CLEAR     83  71  67 SE16      29.94R
LAREDO         MOCLDY    83  72  69 SE12      29.96R
BROWNSVILLE    PTCLDY    81  79  94 E6        29.93R
PORT ISABEL    PTCLDY    83  78  85 SE12      29.92S
HEBBRONVILLE   CLOUDY    79  73  83 SE12      29.96R
MCALLEN        CLOUDY    81  77  88 E12       29.92R
WESLACO        NOT AVBL
FALFURRIAS     CLOUDY    70  66  88 E5        29.92S
EDINBURG       CLOUDY    82  75  80 SE7       29.92R
$$


USA.gov is the U.S. government's official web portal to all federal, state and local government web resources and services.